![]() |
EMODnet Physics ERDDAP
Easier access to scientific data |
log in|
Brought to you by EMODnet Physics |
| Dataset Title: | NDBC - Collection of dew point temperature (DEWT) TimeSeries - IN SITU MultiPointTimeSeriesObservation
|
| Institution: | NDBC (Dataset ID: TS_DEWT_NDBC) |
| Information: | Summary
| License
| FGDC
| ISO 19115
| Metadata
| Background
| Subset
| Data Access Form
| Make a graph
|
| Name | Last modified | Size | Description | |
|---|---|---|---|---|
| Parent Directory | - | - | ||
| WPLF1_TS_DEWT_012020.nc | 28-Oct-2024 02:21 | 429407 | ||
| WPLF1_TS_DEWT_012021.nc | 28-Oct-2024 02:21 | 429314 | ||
| WPLF1_TS_DEWT_012022.nc | 28-Oct-2024 02:21 | 422581 | ||
| WPLF1_TS_DEWT_012023.nc | 28-Oct-2024 02:21 | 440195 | ||
| WPLF1_TS_DEWT_012024.nc | 28-Oct-2024 02:21 | 440141 | ||
| WPLF1_TS_DEWT_022021.nc | 28-Oct-2024 02:21 | 438760 | ||
| WPLF1_TS_DEWT_022022.nc | 28-Oct-2024 02:21 | 439619 | ||
| WPLF1_TS_DEWT_022023.nc | 28-Oct-2024 02:21 | 437345 | ||
| WPLF1_TS_DEWT_022024.nc | 16-Sep-2024 16:51 | 439337 | ||
| WPLF1_TS_DEWT_032020.nc | 28-Oct-2024 02:21 | 437969 | ||
| WPLF1_TS_DEWT_032021.nc | 28-Oct-2024 02:22 | 440081 | ||
| WPLF1_TS_DEWT_032022.nc | 28-Oct-2024 02:22 | 439993 | ||
| WPLF1_TS_DEWT_032023.nc | 28-Oct-2024 02:22 | 439815 | ||
| WPLF1_TS_DEWT_042020.nc | 28-Oct-2024 02:22 | 440230 | ||
| WPLF1_TS_DEWT_042021.nc | 28-Oct-2024 02:22 | 440037 | ||
| WPLF1_TS_DEWT_042022.nc | 28-Oct-2024 02:22 | 440241 | ||
| WPLF1_TS_DEWT_042023.nc | 28-Oct-2024 02:22 | 421828 | ||
| WPLF1_TS_DEWT_052021.nc | 28-Oct-2024 02:22 | 429830 | ||
| WPLF1_TS_DEWT_052022.nc | 28-Oct-2024 02:22 | 429895 | ||
| WPLF1_TS_DEWT_052023.nc | 28-Oct-2024 02:22 | 587140 | ||
| WPLF1_TS_DEWT_062020.nc | 28-Oct-2024 02:22 | 439890 | ||
| WPLF1_TS_DEWT_062021.nc | 28-Oct-2024 02:22 | 587158 | ||
| WPLF1_TS_DEWT_062022.nc | 28-Oct-2024 02:23 | 439652 | ||
| WPLF1_TS_DEWT_062023.nc | 28-Oct-2024 02:23 | 439309 | ||
| WPLF1_TS_DEWT_072020.nc | 28-Oct-2024 02:23 | 435064 | ||
| WPLF1_TS_DEWT_072021.nc | 28-Oct-2024 02:23 | 587038 | ||
| WPLF1_TS_DEWT_072022.nc | 28-Oct-2024 02:23 | 587095 | ||
| WPLF1_TS_DEWT_072023.nc | 28-Oct-2024 02:23 | 587052 | ||
| WPLF1_TS_DEWT_082020.nc | 28-Oct-2024 02:23 | 440182 | ||
| WPLF1_TS_DEWT_082021.nc | 28-Oct-2024 02:23 | 587226 | ||
| WPLF1_TS_DEWT_082022.nc | 28-Oct-2024 02:23 | 587294 | ||
| WPLF1_TS_DEWT_082023.nc | 28-Oct-2024 02:23 | 586887 | ||
| WPLF1_TS_DEWT_092020.nc | 28-Oct-2024 02:23 | 587327 | ||
| WPLF1_TS_DEWT_092021.nc | 28-Oct-2024 02:23 | 587324 | ||
| WPLF1_TS_DEWT_092022.nc | 28-Oct-2024 02:23 | 429535 | ||
| WPLF1_TS_DEWT_092023.nc | 28-Oct-2024 02:23 | 429438 | ||
| WPLF1_TS_DEWT_102020.nc | 28-Oct-2024 02:24 | 428845 | ||
| WPLF1_TS_DEWT_102021.nc | 28-Oct-2024 02:24 | 439548 | ||
| WPLF1_TS_DEWT_102022.nc | 28-Oct-2024 02:24 | 439410 | ||
| WPLF1_TS_DEWT_102023.nc | 28-Oct-2024 02:24 | 439648 | ||
| WPLF1_TS_DEWT_112019.nc | 28-Oct-2024 02:24 | 439629 | ||
| WPLF1_TS_DEWT_112021.nc | 28-Oct-2024 02:24 | 439896 | ||
| WPLF1_TS_DEWT_112022.nc | 28-Oct-2024 02:24 | 440155 | ||
| WPLF1_TS_DEWT_112023.nc | 28-Oct-2024 02:24 | 440055 | ||
| WPLF1_TS_DEWT_122019.nc | 28-Oct-2024 02:24 | 439778 | ||
| WPLF1_TS_DEWT_122020.nc | 28-Oct-2024 02:24 | 439812 | ||
| WPLF1_TS_DEWT_122021.nc | 28-Oct-2024 02:24 | 439902 | ||
| WPLF1_TS_DEWT_122023.nc | 28-Oct-2024 02:24 | 439829 | ||